<?xml version="1.0" encoding="UTF-8" standalone="no" ?>
<gpx xmlns="http://www.topografix.com/GPX/1/1" xmlns:xsi="http://www.w3.org/2001/XMLSchema-instance" xsi:schemaLocation="http://www.topografix.com/GPX/1/1 http://www.topografix.com/GPX/1/1/gpx.xsd" version="1.1" creator="VisuGPX - https://www.visugpx.com">
  <metadata>
    <name>Grignan la Belle</name>
    <desc><![CDATA[Randonnée du jeudi 5 novembre 2010 au programme du SCLapalud ]]></desc>
  </metadata>
  <trk>
    <name><![CDATA[ACTIVE LOG]]></name>
    <trkseg>
      <trkpt lat="44.41994" lon="4.90849">
        <ele>197.20752</ele>
        <time>2010-11-04T23:00:05Z</time>
      </trkpt>
      <trkpt lat="44.41984" lon="4.90886">
        <ele>197.20752</ele>
        <time>2010-11-04T23:00:05Z</time>
      </trkpt>
      <trkpt lat="44.41966" lon="4.90916">
        <ele>195.765625</ele>
        <time>2010-11-04T23:00:05Z</time>
      </trkpt>
      <trkpt lat="44.41921" lon="4.90938">
        <ele>195.765625</ele>
        <time>2010-11-04T23:00:05Z</time>
      </trkpt>
      <trkpt lat="44.41886" lon="4.90955">
        <ele>195.765625</ele>
        <time>2010-11-04T23:00:05Z</time>
      </trkpt>
      <trkpt lat="44.41841" lon="4.90984">
        <ele>194.804321</ele>
        <time>2010-11-04T23:00:05Z</time>
      </trkpt>
      <trkpt lat="44.41828" lon="4.90971">
        <ele>194.804321</ele>
        <time>2010-11-04T23:00:05Z</time>
      </trkpt>
      <trkpt lat="44.41825" lon="4.90885">
        <ele>195.765625</ele>
        <time>2010-11-04T23:00:05Z</time>
      </trkpt>
      <trkpt lat="44.41831" lon="4.90836">
        <ele>195.765625</ele>
        <time>2010-11-04T23:00:05Z</time>
      </trkpt>
      <trkpt lat="44.41791" lon="4.90865">
        <ele>192.881714</ele>
        <time>2010-11-04T23:00:05Z</time>
      </trkpt>
      <trkpt lat="44.41781" lon="4.90913">
        <ele>192.881714</ele>
        <time>2010-11-04T23:00:05Z</time>
      </trkpt>
      <trkpt lat="44.41771" lon="4.90938">
        <ele>191.920288</ele>
        <time>2010-11-04T23:00:05Z</time>
      </trkpt>
      <trkpt lat="44.41773" lon="4.90876">
        <ele>190.958984</ele>
        <time>2010-11-04T23:00:05Z</time>
      </trkpt>
      <trkpt lat="44.41772" lon="4.90913">
        <ele>191.920288</ele>
        <time>2010-11-04T23:00:05Z</time>
      </trkpt>
      <trkpt lat="44.41707" lon="4.91015">
        <ele>189.997681</ele>
        <time>2010-11-04T23:00:05Z</time>
      </trkpt>
      <trkpt lat="44.41688" lon="4.91082">
        <ele>187.11377</ele>
        <time>2010-11-04T23:00:05Z</time>
      </trkpt>
      <trkpt lat="44.41669" lon="4.91149">
        <ele>182.787842</ele>
        <time>2010-11-04T23:00:05Z</time>
      </trkpt>
      <trkpt lat="44.41646" lon="4.91191">
        <ele>180.865234</ele>
        <time>2010-11-04T23:00:05Z</time>
      </trkpt>
      <trkpt lat="44.41617" lon="4.91276">
        <ele>180.865234</ele>
        <time>2010-11-04T23:00:05Z</time>
      </trkpt>
      <trkpt lat="44.41616" lon="4.91337">
        <ele>187.11377</ele>
        <time>2010-11-04T23:00:05Z</time>
      </trkpt>
      <trkpt lat="44.41619" lon="4.91405">
        <ele>193.843018</ele>
        <time>2010-11-04T23:00:05Z</time>
      </trkpt>
      <trkpt lat="44.41635" lon="4.91474">
        <ele>199.130127</ele>
        <time>2010-11-04T23:00:05Z</time>
      </trkpt>
      <trkpt lat="44.41633" lon="4.91542">
        <ele>201.052856</ele>
        <time>2010-11-04T23:00:05Z</time>
      </trkpt>
      <trkpt lat="44.41615" lon="4.91584">
        <ele>202.014282</ele>
        <time>2010-11-04T23:00:05Z</time>
      </trkpt>
      <trkpt lat="44.41573" lon="4.91656">
        <ele>204.898071</ele>
        <time>2010-11-04T23:00:05Z</time>
      </trkpt>
      <trkpt lat="44.41528" lon="4.91691">
        <ele>203.93689</ele>
        <time>2010-11-04T23:00:05Z</time>
      </trkpt>
      <trkpt lat="44.41461" lon="4.91743">
        <ele>197.20752</ele>
        <time>2010-11-04T23:00:05Z</time>
      </trkpt>
      <trkpt lat="44.41437" lon="4.91816">
        <ele>192.881714</ele>
        <time>2010-11-04T23:00:05Z</time>
      </trkpt>
      <trkpt lat="44.41414" lon="4.91828">
        <ele>191.920288</ele>
        <time>2010-11-04T23:00:05Z</time>
      </trkpt>
      <trkpt lat="44.41376" lon="4.91783">
        <ele>189.036377</ele>
        <time>2010-11-04T23:00:05Z</time>
      </trkpt>
      <trkpt lat="44.41339" lon="4.91836">
        <ele>191.920288</ele>
        <time>2010-11-04T23:00:05Z</time>
      </trkpt>
      <trkpt lat="44.41304" lon="4.91847">
        <ele>192.881714</ele>
        <time>2010-11-04T23:00:05Z</time>
      </trkpt>
      <trkpt lat="44.41276" lon="4.91901">
        <ele>201.052856</ele>
        <time>2010-11-04T23:00:05Z</time>
      </trkpt>
      <trkpt lat="44.41238" lon="4.92017">
        <ele>204.898071</ele>
        <time>2010-11-04T23:00:05Z</time>
      </trkpt>
      <trkpt lat="44.41228" lon="4.92047">
        <ele>205.859497</ele>
        <time>2010-11-04T23:00:05Z</time>
      </trkpt>
      <trkpt lat="44.41213" lon="4.92145">
        <ele>205.859497</ele>
        <time>2010-11-04T23:00:05Z</time>
      </trkpt>
      <trkpt lat="44.41228" lon="4.92232">
        <ele>205.859497</ele>
        <time>2010-11-04T23:00:05Z</time>
      </trkpt>
      <trkpt lat="44.41243" lon="4.92337">
        <ele>209.224121</ele>
        <time>2010-11-04T23:00:05Z</time>
      </trkpt>
      <trkpt lat="44.41298" lon="4.92439">
        <ele>211.146729</ele>
        <time>2010-11-04T23:00:05Z</time>
      </trkpt>
      <trkpt lat="44.41297" lon="4.92512">
        <ele>209.224121</ele>
        <time>2010-11-04T23:00:05Z</time>
      </trkpt>
      <trkpt lat="44.41339" lon="4.92601">
        <ele>210.185425</ele>
        <time>2010-11-04T23:00:05Z</time>
      </trkpt>
      <trkpt lat="44.41366" lon="4.92744">
        <ele>211.146729</ele>
        <time>2010-11-04T23:00:05Z</time>
      </trkpt>
      <trkpt lat="44.41348" lon="4.92786">
        <ele>210.185425</ele>
        <time>2010-11-04T23:00:05Z</time>
      </trkpt>
      <trkpt lat="44.41347" lon="4.92811">
        <ele>210.185425</ele>
        <time>2010-11-04T23:00:05Z</time>
      </trkpt>
      <trkpt lat="44.41355" lon="4.92854">
        <ele>210.185425</ele>
        <time>2010-11-04T23:00:05Z</time>
      </trkpt>
      <trkpt lat="44.41377" lon="4.92874">
        <ele>207.782104</ele>
        <time>2010-11-04T23:00:05Z</time>
      </trkpt>
      <trkpt lat="44.41425" lon="4.92876">
        <ele>203.93689</ele>
        <time>2010-11-04T23:00:05Z</time>
      </trkpt>
      <trkpt lat="44.41474" lon="4.92866">
        <ele>200.091675</ele>
        <time>2010-11-04T23:00:05Z</time>
      </trkpt>
      <trkpt lat="44.41552" lon="4.92919">
        <ele>200.091675</ele>
        <time>2010-11-04T23:00:05Z</time>
      </trkpt>
      <trkpt lat="44.4161" lon="4.92903">
        <ele>204.898071</ele>
        <time>2010-11-04T23:00:05Z</time>
      </trkpt>
      <trkpt lat="44.41631" lon="4.92929">
        <ele>205.859497</ele>
        <time>2010-11-04T23:00:05Z</time>
      </trkpt>
      <trkpt lat="44.41638" lon="4.9304">
        <ele>205.859497</ele>
        <time>2010-11-04T23:00:05Z</time>
      </trkpt>
      <trkpt lat="44.41644" lon="4.93151">
        <ele>206.820679</ele>
        <time>2010-11-04T23:00:05Z</time>
      </trkpt>
      <trkpt lat="44.41646" lon="4.9325">
        <ele>204.898071</ele>
        <time>2010-11-04T23:00:05Z</time>
      </trkpt>
      <trkpt lat="44.41702" lon="4.93289">
        <ele>203.93689</ele>
        <time>2010-11-04T23:00:05Z</time>
      </trkpt>
      <trkpt lat="44.41705" lon="4.93363">
        <ele>203.93689</ele>
        <time>2010-11-04T23:00:05Z</time>
      </trkpt>
      <trkpt lat="44.41704" lon="4.93407">
        <ele>203.93689</ele>
        <time>2010-11-04T23:00:05Z</time>
      </trkpt>
      <trkpt lat="44.41753" lon="4.93409">
        <ele>207.782104</ele>
        <time>2010-11-04T23:00:05Z</time>
      </trkpt>
      <trkpt lat="44.4177" lon="4.93422">
        <ele>210.185425</ele>
        <time>2010-11-04T23:00:05Z</time>
      </trkpt>
      <trkpt lat="44.41814" lon="4.93424">
        <ele>211.146729</ele>
        <time>2010-11-04T23:00:05Z</time>
      </trkpt>
      <trkpt lat="44.41829" lon="4.93357">
        <ele>211.146729</ele>
        <time>2010-11-04T23:00:05Z</time>
      </trkpt>
      <trkpt lat="44.41826" lon="4.93301">
        <ele>211.146729</ele>
        <time>2010-11-04T23:00:05Z</time>
      </trkpt>
      <trkpt lat="44.41806" lon="4.93208">
        <ele>210.185425</ele>
        <time>2010-11-04T23:00:05Z</time>
      </trkpt>
      <trkpt lat="44.41796" lon="4.93078">
        <ele>211.146729</ele>
        <time>2010-11-04T23:00:05Z</time>
      </trkpt>
      <trkpt lat="44.41768" lon="4.92947">
        <ele>211.146729</ele>
        <time>2010-11-04T23:00:05Z</time>
      </trkpt>
      <trkpt lat="44.41813" lon="4.92925">
        <ele>213.069336</ele>
        <time>2010-11-04T23:00:05Z</time>
      </trkpt>
      <trkpt lat="44.41848" lon="4.92926">
        <ele>214.03064</ele>
        <time>2010-11-04T23:00:05Z</time>
      </trkpt>
      <trkpt lat="44.41888" lon="4.92903">
        <ele>216.914673</ele>
        <time>2010-11-04T23:00:05Z</time>
      </trkpt>
      <trkpt lat="44.41919" lon="4.92929">
        <ele>217.875977</ele>
        <time>2010-11-04T23:00:05Z</time>
      </trkpt>
      <trkpt lat="44.41972" lon="4.9292">
        <ele>219.798584</ele>
        <time>2010-11-04T23:00:05Z</time>
      </trkpt>
      <trkpt lat="44.42042" lon="4.92935">
        <ele>224.124512</ele>
        <time>2010-11-04T23:00:05Z</time>
      </trkpt>
      <trkpt lat="44.42078" lon="4.92937">
        <ele>226.047119</ele>
        <time>2010-11-04T23:00:05Z</time>
      </trkpt>
      <trkpt lat="44.42078" lon="4.92937">
        <ele>226.047119</ele>
        <time>2010-11-04T23:00:05Z</time>
      </trkpt>
      <trkpt lat="44.42126" lon="4.92945">
        <ele>227.969727</ele>
        <time>2010-11-04T23:00:05Z</time>
      </trkpt>
      <trkpt lat="44.42196" lon="4.92955">
        <ele>231.814941</ele>
        <time>2010-11-04T23:00:05Z</time>
      </trkpt>
      <trkpt lat="44.42214" lon="4.92974">
        <ele>232.776489</ele>
        <time>2010-11-04T23:00:05Z</time>
      </trkpt>
      <trkpt lat="44.42232" lon="4.92944">
        <ele>232.776489</ele>
        <time>2010-11-04T23:00:05Z</time>
      </trkpt>
      <trkpt lat="44.42254" lon="4.92933">
        <ele>232.776489</ele>
        <time>2010-11-04T23:00:05Z</time>
      </trkpt>
      <trkpt lat="44.42285" lon="4.92928">
        <ele>232.776489</ele>
        <time>2010-11-04T23:00:05Z</time>
      </trkpt>
      <trkpt lat="44.42307" lon="4.92935">
        <ele>232.776489</ele>
        <time>2010-11-04T23:00:05Z</time>
      </trkpt>
      <trkpt lat="44.42347" lon="4.92949">
        <ele>229.892334</ele>
        <time>2010-11-04T23:00:05Z</time>
      </trkpt>
      <trkpt lat="44.42381" lon="4.92975">
        <ele>228.931152</ele>
        <time>2010-11-04T23:00:05Z</time>
      </trkpt>
      <trkpt lat="44.42443" lon="4.92997">
        <ele>229.892334</ele>
        <time>2010-11-04T23:00:05Z</time>
      </trkpt>
      <trkpt lat="44.425" lon="4.92999">
        <ele>230.85376</ele>
        <time>2010-11-04T23:00:05Z</time>
      </trkpt>
      <trkpt lat="44.42511" lon="4.92895">
        <ele>238.063599</ele>
        <time>2010-11-04T23:00:05Z</time>
      </trkpt>
      <trkpt lat="44.42543" lon="4.92681">
        <ele>247.196045</ele>
        <time>2010-11-04T23:00:05Z</time>
      </trkpt>
      <trkpt lat="44.42567" lon="4.92596">
        <ele>249.118774</ele>
        <time>2010-11-04T23:00:05Z</time>
      </trkpt>
      <trkpt lat="44.42598" lon="4.92615">
        <ele>251.041382</ele>
        <time>2010-11-04T23:00:05Z</time>
      </trkpt>
      <trkpt lat="44.42656" lon="4.92593">
        <ele>254.886597</ele>
        <time>2010-11-04T23:00:05Z</time>
      </trkpt>
      <trkpt lat="44.42675" lon="4.92527">
        <ele>256.809326</ele>
        <time>2010-11-04T23:00:05Z</time>
      </trkpt>
      <trkpt lat="44.42765" lon="4.92469">
        <ele>265.941895</ele>
        <time>2010-11-04T23:00:05Z</time>
      </trkpt>
      <trkpt lat="44.42819" lon="4.92398">
        <ele>269.787109</ele>
        <time>2010-11-04T23:00:05Z</time>
      </trkpt>
      <trkpt lat="44.42894" lon="4.92395">
        <ele>263.057861</ele>
        <time>2010-11-04T23:00:05Z</time>
      </trkpt>
      <trkpt lat="44.42824" lon="4.92398">
        <ele>269.787109</ele>
        <time>2010-11-04T23:00:05Z</time>
      </trkpt>
      <trkpt lat="44.42765" lon="4.92457">
        <ele>265.941895</ele>
        <time>2010-11-04T23:00:05Z</time>
      </trkpt>
      <trkpt lat="44.42679" lon="4.92527">
        <ele>256.809326</ele>
        <time>2010-11-04T23:00:05Z</time>
      </trkpt>
      <trkpt lat="44.42651" lon="4.92587">
        <ele>254.886597</ele>
        <time>2010-11-04T23:00:05Z</time>
      </trkpt>
      <trkpt lat="44.42602" lon="4.92616">
        <ele>251.041382</ele>
        <time>2010-11-04T23:00:05Z</time>
      </trkpt>
      <trkpt lat="44.4255" lon="4.92595">
        <ele>248.157593</ele>
        <time>2010-11-04T23:00:05Z</time>
      </trkpt>
      <trkpt lat="44.42543" lon="4.92687">
        <ele>247.196045</ele>
        <time>2010-11-04T23:00:05Z</time>
      </trkpt>
      <trkpt lat="44.42507" lon="4.92901">
        <ele>237.102295</ele>
        <time>2010-11-04T23:00:05Z</time>
      </trkpt>
      <trkpt lat="44.42505" lon="4.93">
        <ele>230.85376</ele>
        <time>2010-11-04T23:00:05Z</time>
      </trkpt>
      <trkpt lat="44.42584" lon="4.93003">
        <ele>232.776489</ele>
        <time>2010-11-04T23:00:05Z</time>
      </trkpt>
      <trkpt lat="44.42628" lon="4.93011">
        <ele>236.140991</ele>
        <time>2010-11-04T23:00:05Z</time>
      </trkpt>
      <trkpt lat="44.42698" lon="4.93058">
        <ele>237.102295</ele>
        <time>2010-11-04T23:00:05Z</time>
      </trkpt>
      <trkpt lat="44.42736" lon="4.93127">
        <ele>229.892334</ele>
        <time>2010-11-04T23:00:05Z</time>
      </trkpt>
      <trkpt lat="44.42805" lon="4.93192">
        <ele>231.814941</ele>
        <time>2010-11-04T23:00:05Z</time>
      </trkpt>
      <trkpt lat="44.42888" lon="4.93239">
        <ele>234.218384</ele>
        <time>2010-11-04T23:00:05Z</time>
      </trkpt>
      <trkpt lat="44.42959" lon="4.93212">
        <ele>239.024902</ele>
        <time>2010-11-04T23:00:05Z</time>
      </trkpt>
      <trkpt lat="44.4301" lon="4.93122">
        <ele>239.986206</ele>
        <time>2010-11-04T23:00:05Z</time>
      </trkpt>
      <trkpt lat="44.43046" lon="4.9308">
        <ele>238.063599</ele>
        <time>2010-11-04T23:00:05Z</time>
      </trkpt>
      <trkpt lat="44.43046" lon="4.92901">
        <ele>236.140991</ele>
        <time>2010-11-04T23:00:05Z</time>
      </trkpt>
      <trkpt lat="44.43049" lon="4.9276">
        <ele>234.218384</ele>
        <time>2010-11-04T23:00:05Z</time>
      </trkpt>
      <trkpt lat="44.43057" lon="4.92618">
        <ele>232.776489</ele>
        <time>2010-11-04T23:00:05Z</time>
      </trkpt>
      <trkpt lat="44.43074" lon="4.92452">
        <ele>235.179688</ele>
        <time>2010-11-04T23:00:05Z</time>
      </trkpt>
      <trkpt lat="44.43073" lon="4.92323">
        <ele>225.085938</ele>
        <time>2010-11-04T23:00:05Z</time>
      </trkpt>
      <trkpt lat="44.43058" lon="4.92199">
        <ele>220.759888</ele>
        <time>2010-11-04T23:00:05Z</time>
      </trkpt>
      <trkpt lat="44.43047" lon="4.92124">
        <ele>220.759888</ele>
        <time>2010-11-04T23:00:05Z</time>
      </trkpt>
      <trkpt lat="44.43017" lon="4.92049">
        <ele>220.759888</ele>
        <time>2010-11-04T23:00:05Z</time>
      </trkpt>
      <trkpt lat="44.42989" lon="4.91961">
        <ele>223.163208</ele>
        <time>2010-11-04T23:00:05Z</time>
      </trkpt>
      <trkpt lat="44.4295" lon="4.91904">
        <ele>225.085938</ele>
        <time>2010-11-04T23:00:05Z</time>
      </trkpt>
      <trkpt lat="44.4293" lon="4.91841">
        <ele>226.047119</ele>
        <time>2010-11-04T23:00:05Z</time>
      </trkpt>
      <trkpt lat="44.42896" lon="4.91772">
        <ele>224.124512</ele>
        <time>2010-11-04T23:00:05Z</time>
      </trkpt>
      <trkpt lat="44.42868" lon="4.91629">
        <ele>220.759888</ele>
        <time>2010-11-04T23:00:05Z</time>
      </trkpt>
      <trkpt lat="44.42831" lon="4.91529">
        <ele>220.759888</ele>
        <time>2010-11-04T23:00:05Z</time>
      </trkpt>
      <trkpt lat="44.42816" lon="4.91417">
        <ele>219.798584</ele>
        <time>2010-11-04T23:00:05Z</time>
      </trkpt>
      <trkpt lat="44.42755" lon="4.91365">
        <ele>222.201782</ele>
        <time>2010-11-04T23:00:05Z</time>
      </trkpt>
      <trkpt lat="44.42721" lon="4.9132">
        <ele>222.201782</ele>
        <time>2010-11-04T23:00:05Z</time>
      </trkpt>
      <trkpt lat="44.42678" lon="4.91275">
        <ele>222.201782</ele>
        <time>2010-11-04T23:00:05Z</time>
      </trkpt>
      <trkpt lat="44.42651" lon="4.91268">
        <ele>220.759888</ele>
        <time>2010-11-04T23:00:05Z</time>
      </trkpt>
      <trkpt lat="44.42568" lon="4.91227">
        <ele>216.914673</ele>
        <time>2010-11-04T23:00:05Z</time>
      </trkpt>
      <trkpt lat="44.42494" lon="4.91199">
        <ele>210.185425</ele>
        <time>2010-11-04T23:00:05Z</time>
      </trkpt>
      <trkpt lat="44.42432" lon="4.91196">
        <ele>205.859497</ele>
        <time>2010-11-04T23:00:05Z</time>
      </trkpt>
      <trkpt lat="44.42375" lon="4.912">
        <ele>201.052856</ele>
        <time>2010-11-04T23:00:05Z</time>
      </trkpt>
      <trkpt lat="44.42355" lon="4.911">
        <ele>203.93689</ele>
        <time>2010-11-04T23:00:05Z</time>
      </trkpt>
      <trkpt lat="44.42335" lon="4.91013">
        <ele>203.93689</ele>
        <time>2010-11-04T23:00:05Z</time>
      </trkpt>
      <trkpt lat="44.42323" lon="4.90969">
        <ele>199.130127</ele>
        <time>2010-11-04T23:00:05Z</time>
      </trkpt>
      <trkpt lat="44.42239" lon="4.90965">
        <ele>190.958984</ele>
        <time>2010-11-04T23:00:05Z</time>
      </trkpt>
      <trkpt lat="44.42183" lon="4.90913">
        <ele>189.997681</ele>
        <time>2010-11-04T23:00:05Z</time>
      </trkpt>
      <trkpt lat="44.42109" lon="4.90836">
        <ele>195.765625</ele>
        <time>2010-11-04T23:00:05Z</time>
      </trkpt>
      <trkpt lat="44.42038" lon="4.90851">
        <ele>195.765625</ele>
        <time>2010-11-04T23:00:05Z</time>
      </trkpt>
      <trkpt lat="44.42007" lon="4.90862">
        <ele>197.20752</ele>
        <time>2010-11-04T23:00:05Z</time>
      </trkpt>
    </trkseg>
  </trk>
</gpx>